Tracking 19559 objects as of 26-Mar-2019
HD Live streaming from Space Station
objects crossing your sky now

IRIDIUM 44

Track IRIDIUM 44 now!
10-day predictions
IRIDIUM 44 is classified as:


NORAD ID: 25078
Int'l Code: 1997-077B
Perigee: 770.6 km
Apogee: 772.3 km
Inclination: 86.4 °
Period: 100.1 minutes
Semi major axis: 7142 km
RCS: 3.743 m2 (large)
Launch date: December 8, 1997
Source: United States (US)
Launch site: Taiyaun Space Center, China (TSC)
aabbcc
Your satellite tracking list
Your tracking list is empty




NASA's NSSDC Master Catalog

Two Line Element Set (TLE):
1 25078U 97077B   19084.64794313 +.00000084 +00000-0 +20993-4 0  9990
2 25078 086.3913 099.5742 0001235 037.2108 322.9175 14.38240584116514
Source of the keplerian elements: AFSPC